Voltar ao catálogo

STARLINK-32554

AtivoComunicaçõesVLEO
NORAD 62136·PAYLOAD·🇺🇸 United States

Lançado Nov 27, 2024 de Cape Canaveral Space Force Station

Loading…

Próximas Passagens (próximas 24 horas)

TLE

AtualizadoSource: CelesTrak SupGP

Época: Sep 14, 2026, 22:58 UTC

1 62136C 24222Y   26257.95743056 -.00028348  00000+0 -10269-2 0  2574
2 62136  43.0016 147.2265 0001330 273.4971 167.2971 15.27587497    10

Acompanhe STARLINK-32554 em tempo real com AllMySat

Download on the App Store